N9MAN Weather Reports


Display with metric or nautical units.
time (UTC)temp
F
wind
direction
speed
MPH
gust
MPH
rain 1hr
in
rain 24hr
in
rain mn
in
humidity
%
barometer
mb
20260906061254 73 142 0.0 0.0 0.00 0.00 0.00 92 1016.3
20260906060749 74 139 0.0 1.0 0.00 0.00 0.00 92 1016.3
20260906060247 74 103 1.0 1.0 0.00 0.00 0.00 91 1015.9
20260906055742 74 114 1.0 1.0 0.00 0.00 0.00 91 1016.2
20260906055237 74 51 2.0 2.0 0.00 0.00 0.00 91 1016.1
20260906054733 74 66 1.0 1.0 0.00 0.00 0.00 91 1015.6
20260906054228 74 132 0.0 0.0 0.00 0.00 0.00 91 1015.9
20260906053724 75 85 1.0 1.0 0.00 0.00 0.00 91 1015.7
20260906053220 75 157 0.0 0.0 0.00 0.00 0.00 90 1015.8
20260906052715 75 42 1.0 2.0 0.00 0.00 0.00 90 1015.8
20260906052211 75 90 1.0 1.0 0.00 0.00 0.00 90 1015.8
20260906051708 75 27 1.0 2.0 0.00 0.00 0.00 91 1015.6
20260906051207 76 121 0.0 1.0 0.00 0.00 0.00 90 1015.9
20260906050703 76 64 2.0 2.0 0.00 0.00 0.00 90 1016.1
20260906050157 76 125 1.0 1.0 0.00 0.00 0.00 90 1015.8
20260906045656 76 52 2.0 2.0 0.00 0.00 0.00 90 1015.7
20260906045151 76 112 1.0 1.0 0.00 0.00 0.00 90 1015.8
20260906044647 76 113 1.0 1.0 0.00 0.00 0.00 90 1015.8
20260906044142 75 52 2.0 2.0 0.00 0.00 0.00 90 1015.6
20260906043638 75 127 0.0 1.0 0.00 0.00 0.00 91 1015.7
20260906043134 75 37 1.0 2.0 0.00 0.00 0.00 91 1015.6
20260906042633 75 133 0.0 0.0 0.00 0.00 0.00 90 1015.6
20260906042127 76 129 0.0 0.0 0.00 0.00 0.00 90 1015.6
20260906041623 76 116 0.0 1.0 0.00 0.00 0.00 89 1015.7
20260906041118 76 74 2.0 2.0 0.00 0.00 0.00 89 1015.5
20260906040614 76 40 1.0 2.0 0.00 0.00 0.00 89 1015.6
20260906040109 76 92 0.0 0.0 0.00 0.00 0.00 89 1015.6
20260906035604 76 26 2.0 2.0 0.00 0.00 0.00 89 1015.5
20260906035100 76 4 2.0 3.0 0.00 0.00 0.00 88 1015.6
20260906034600 76 99 1.0 1.0 0.00 0.00 0.00 88 1015.7
20260906034054 77 107 1.0 1.0 0.00 0.00 0.00 88 1015.5
20260906033550 77 92 2.0 3.0 0.00 0.00 0.00 87 1015.4
20260906033045 77 38 1.0 2.0 0.00 0.00 0.00 88 1015.3
20260906032542 77 96 1.0 1.0 0.00 0.00 0.00 87 1015.3
20260906032036 77 74 2.0 3.0 0.00 0.00 0.00 87 1015.3
20260906031532 77 98 1.0 1.0 0.00 0.00 0.00 87 1015.4
20260906031027 78 134 1.0 2.0 0.00 0.00 0.00 87 1015.4
20260906030526 78 96 1.0 1.0 0.00 0.00 0.00 87 1015.2
20260906030026 78 93 2.0 2.0 0.00 0.00 0.00 86 1015.3
20260906025526 78 139 1.0 1.0 0.00 0.00 0.00 87 1015.1
20260906025024 78 97 1.0 1.0 0.00 0.00 0.00 86 1015.3
20260906024520 79 53 2.0 3.0 0.00 0.00 0.00 86 1015.3
20260906024020 79 93 1.0 1.0 0.00 0.00 0.00 86 1015.4
20260906023516 79 39 4.0 4.0 0.00 0.00 0.00 85 1015.2
20260906023011 79 103 3.0 3.0 0.00 0.00 0.00 84 1014.9
20260906022506 80 50 1.0 2.0 0.00 0.00 0.00 83 1015.0
20260906022001 80 92 3.0 3.0 0.00 0.00 0.00 82 1014.9
20260906021455 80 59 2.0 2.0 0.00 0.00 0.00 82 1014.9
20260906020950 80 56 2.0 2.0 0.00 0.00 0.00 82 1014.8
20260906020445 79 33 4.0 7.0 0.00 0.00 0.00 83 1014.7
20260906015944 79 134 0.0 0.0 0.00 0.00 0.00 84 1014.8
20260906015444 78 225 1.0 1.0 0.00 0.00 0.00 87 1014.6
20260906014944 78 119 1.0 1.0 0.00 0.00 0.00 87 1014.4
20260906014438 78 125 0.0 1.0 0.00 0.00 0.00 87 1014.5
20260906013934 78 111 1.0 1.0 0.00 0.00 0.00 86 1014.4
20260906013429 78 139 0.0 0.0 0.00 0.00 0.00 87 1014.3
20260906012925 78 144 0.0 0.0 0.00 0.00 0.00 86 1014.2
20260906012425 79 158 0.0 0.0 0.00 0.00 0.00 85 1014.1
20260906011924 79 158 0.0 0.0 0.00 0.00 0.00 85 1014.0
20260906011420 79 145 0.0 0.0 0.00 0.00 0.00 85 1013.8
20260906010915 79 147 0.0 0.0 0.00 0.00 0.00 84 1014.1
20260906010411 79 147 0.0 0.0 0.00 0.00 0.00 84 1013.9
20260906005906 79 142 0.0 0.0 0.00 0.00 0.00 83 1013.8
20260906005406 80 133 0.0 1.0 0.00 0.00 0.00 82 1013.8
20260906004904 80 129 0.0 0.0 0.00 0.00 0.00 81 1013.6
20260906004359 80 108 1.0 1.0 0.00 0.00 0.00 80 1013.6
20260906003854 81 137 0.0 0.0 0.00 0.00 0.00 80 1013.6
20260906003349 82 137 0.0 0.0 0.00 0.00 0.00 78 1013.5
20260906002845 82 148 0.0 0.0 0.00 0.00 0.00 76 1013.3
20260906002344 82 143 0.0 0.0 0.00 0.00 0.00 75 1013.2
20260906001840 82 125 1.0 1.0 0.00 0.00 0.00 75 1013.5
20260906001336 83 93 1.0 2.0 0.00 0.00 0.00 74 1013.3
20260906000831 83 44 1.0 2.0 0.00 0.00 0.00 74 1013.3
20260906000326 83 141 0.0 0.0 0.00 0.00 0.00 74 1013.4
20260905235825 84 24 4.0 4.0 0.00 0.00 0.00 73 1013.3
20260905235320 84 119 0.0 0.0 0.00 0.00 0.00 74 1013.4
20260905234815 84 64 1.0 1.0 0.00 0.00 0.00 74 1013.6
20260905234311 84 30 1.0 2.0 0.00 0.00 0.00 75 1013.6
20260905233811 82 129 0.0 0.0 0.00 0.00 0.00 80 1013.4
20260905233306 83 140 0.0 0.0 0.00 0.00 0.00 79 1013.3
20260905232805 83 153 0.0 0.0 0.00 0.00 0.00 77 1013.5
20260905232301 83 153 0.0 0.0 0.00 0.00 0.00 77 1013.5
20260905231757 83 154 0.0 0.0 0.00 0.00 0.00 78 1013.4
20260905231252 84 150 0.0 0.0 0.00 0.00 0.00 78 1013.4
20260905230748 84 170 0.0 0.0 0.00 0.00 0.00 76 1013.4
20260905230245 84 150 0.0 0.0 0.00 0.00 0.00 76 1013.4
20260905225745 84 147 0.0 0.0 0.00 0.00 0.00 76 1013.2
20260905225241 84 130 0.0 1.0 0.00 0.00 0.00 76 1013.2
20260905224739 84 153 0.0 0.0 0.00 0.00 0.00 75 1013.3
20260905224236 84 125 1.0 1.0 0.00 0.00 0.00 75 1013.0
20260905223731 85 158 0.0 0.0 0.00 0.00 0.00 74 1012.8
20260905223228 85 134 0.0 0.0 0.00 0.00 0.00 73 1013.1
20260905222724 86 176 0.0 0.0 0.00 0.00 0.00 71 1013.1
20260905222222 85 185 1.0 2.0 0.00 0.00 0.00 70 1013.3
20260905221719 85 154 0.0 0.0 0.00 0.00 0.00 68 1013.4
20260905221215 85 158 0.0 0.0 0.00 0.00 0.00 67 1013.5
20260905220711 85 170 0.0 0.0 0.00 0.00 0.00 71 1013.4
20260905220207 85 164 0.0 0.0 0.00 0.00 0.00 71 1013.0
20260905215706 85 162 0.0 0.0 0.00 0.00 0.00 74 1012.5
20260905215202 85 331 1.0 2.0 0.00 0.00 0.00 75 1012.8
20260905214658 85 125 0.0 0.0 0.00 0.00 0.00 75 1012.8
20260905214153 84 148 0.0 0.0 0.00 0.00 0.00 78 1013.1
20260905213648 84 138 0.0 0.0 0.00 0.00 0.00 80 1013.3
20260905213144 85 138 0.0 0.0 0.00 0.00 0.00 78 1013.3
20260905212639 85 138 0.0 0.0 0.00 0.00 0.00 76 1013.3
20260905212138 86 134 0.0 0.0 0.00 0.00 0.00 79 1012.9
20260905211633 86 134 0.0 0.0 0.00 0.00 0.00 74 1013.0
20260905211128 86 134 0.0 0.0 0.00 0.00 0.00 73 1013.3
20260905210625 87 134 0.0 0.0 0.00 0.00 0.00 72 1012.8
20260905210119 87 134 0.0 0.0 0.00 0.00 0.00 70 1013.3
20260905205618 87 132 0.0 0.0 0.00 0.00 0.00 70 1013.2
20260905205118 88 129 0.0 0.0 0.00 0.00 0.00 70 1013.3
20260905204618 89 146 0.0 0.0 0.00 0.00 0.00 67 1013.3
20260905204114 89 156 0.0 0.0 0.00 0.00 0.00 66 1013.4
20260905203613 90 149 0.0 0.0 0.00 0.00 0.00 66 1013.6
20260905203109 90 152 0.0 0.0 0.00 0.00 0.00 63 1013.3
20260905202604 91 188 1.0 2.0 0.00 0.00 0.00 63 1013.5
20260905202059 91 167 1.0 2.0 0.00 0.00 0.00 63 1013.5
20260905201555 91 133 0.0 1.0 0.00 0.00 0.00 62 1013.7
20260905201054 91 160 0.0 1.0 0.00 0.00 0.00 61 1013.7
20260905200550 91 215 2.0 2.0 0.00 0.00 0.00 60 1013.6
20260905200044 91 163 0.0 0.0 0.00 0.00 0.00 64 1013.6
20260905195538 92 197 1.0 1.0 0.00 0.00 0.00 63 1013.5
20260905195034 93 135 0.0 0.0 0.00 0.00 0.00 60 1013.6
20260905194533 94 212 1.0 1.0 0.00 0.00 0.00 57 1013.5
20260905194033 95 194 1.0 1.0 0.00 0.00 0.00 56 1013.5
20260905193527 94 174 0.0 0.0 0.00 0.00 0.00 57 1013.7
20260905193023 95 163 1.0 1.0 0.00 0.00 0.00 55 1014.0
20260905192518 95 200 1.0 1.0 0.00 0.00 0.00 55 1013.9
20260905192015 94 199 0.0 1.0 0.00 0.00 0.00 57 1013.9
20260905191513 95 179 1.0 1.0 0.00 0.00 0.00 54 1013.9
20260905191012 93 163 0.0 1.0 0.00 0.00 0.00 56 1014.0
20260905190510 94 325 1.0 1.0 0.00 0.00 0.00 58 1014.0
20260905190010 94 163 1.0 2.0 0.00 0.00 0.00 55 1014.3
20260905185504 93 200 0.0 1.0 0.00 0.00 0.00 55 1014.2
20260905185003 93 187 3.0 3.0 0.00 0.00 0.00 56 1014.4
20260905184458 94 195 1.0 1.0 0.00 0.00 0.00 54 1014.3
20260905183957 93 229 0.0 0.0 0.00 0.00 0.00 56 1014.5
20260905183457 93 189 0.0 0.0 0.00 0.00 0.00 56 1014.8
20260905182951 93 173 1.0 1.0 0.00 0.00 0.00 55 1014.6
20260905182451 93 184 1.0 2.0 0.00 0.00 0.00 55 1014.6
20260905181946 93 223 2.0 2.0 0.00 0.00 0.00 55 1014.9
20260905181447 93 235 2.0 2.0 0.00 0.00 0.00 55 1015.0
20260905180946 92 187 0.0 1.0 0.00 0.00 0.00 57 1014.7
20260905180441 93 206 2.0 2.0 0.00 0.00 0.00 55 1014.9
20260905175936 92 163 1.0 1.0 0.00 0.00 0.00 56 1015.0
20260905175435 91 240 2.0 2.0 0.00 0.00 0.00 56 1014.9
20260905174931 91 238 1.0 1.0 0.00 0.00 0.00 57 1015.1
20260905174426 92 200 1.0 1.0 0.00 0.00 0.00 55 1015.0
20260905173922 91 169 1.0 1.0 0.00 0.00 0.00 57 1015.2
20260905173419 91 144 0.0 0.0 0.00 0.00 0.00 57 1015.0
20260905172919 91 186 2.0 3.0 0.00 0.00 0.00 55 1015.2
20260905172416 90 176 1.0 1.0 0.00 0.00 0.00 59 1015.4
20260905171912 90 223 1.0 1.0 0.00 0.00 0.00 57 1015.3
20260905171409 89 74 0.0 1.0 0.00 0.00 0.00 57 1015.3
20260905170905 90 152 1.0 1.0 0.00 0.00 0.00 56 1015.5
20260905170401 89 159 0.0 0.0 0.00 0.00 0.00 58 1015.5
20260905165900 89 214 2.0 2.0 0.00 0.00 0.00 58 1015.8
20260905165356 88 184 1.0 1.0 0.00 0.00 0.00 59 1015.6
20260905164856 87 183 0.0 1.0 0.00 0.00 0.00 62 1015.7
20260905164351 87 193 1.0 2.0 0.00 0.00 0.00 60 1015.8
20260905163846 87 166 2.0 3.0 0.00 0.00 0.00 61 1015.8
20260905163343 87 206 2.0 3.0 0.00 0.00 0.00 60 1015.8
20260905162839 87 167 1.0 1.0 0.00 0.00 0.00 63 1016.1
20260905162338 87 152 1.0 1.0 0.00 0.00 0.00 60 1015.9
20260905161832 87 188 0.0 1.0 0.00 0.00 0.00 63 1016.1
20260905161332 86 209 1.0 2.0 0.00 0.00 0.00 60 1016.2
20260905160830 86 185 0.0 0.0 0.00 0.00 0.00 63 1015.9
20260905160325 86 165 0.0 0.0 0.00 0.00 0.00 61 1015.9
20260905155319 84 194 2.0 2.0 0.00 0.00 0.00 63 1015.9
20260905154813 84 161 0.0 0.0 0.00 0.00 0.00 64 1015.9
20260905154308 83 174 1.0 1.0 0.00 0.00 0.00 65 1015.8
20260905153804 83 221 2.0 2.0 0.00 0.00 0.00 66 1015.8
20260905153301 82 176 0.0 1.0 0.00 0.00 0.00 66 1015.8
20260905152800 82 135 2.0 2.0 0.00 0.00 0.00 66 1016.1
20260905152259 81 183 1.0 1.0 0.00 0.00 0.00 68 1016.1
20260905151800 81 213 3.0 3.0 0.00 0.00 0.00 68 1016.2
20260905151256 81 230 3.0 3.0 0.00 0.00 0.00 69 1016.2
20260905150755 80 202 1.0 1.0 0.00 0.00 0.00 71 1016.3
20260905150255 80 180 2.0 3.0 0.00 0.00 0.00 70 1016.3
20260905145753 80 166 1.0 2.0 0.00 0.00 0.00 70 1016.4
20260905145247 79 151 0.0 0.0 0.00 0.00 0.00 71 1016.3
20260905144746 79 187 1.0 2.0 0.00 0.00 0.00 71 1016.3
20260905144242 79 206 2.0 2.0 0.00 0.00 0.00 72 1016.3
20260905143741 78 177 0.0 0.0 0.00 0.00 0.00 72 1016.3
20260905143241 78 165 0.0 0.0 0.00 0.00 0.00 73 1016.4
20260905142739 78 205 1.0 2.0 0.00 0.00 0.00 73 1016.5
20260905142234 78 231 2.0 2.0 0.00 0.00 0.00 73 1016.5
20260905141730 78 153 0.0 0.0 0.00 0.00 0.00 73 1016.6
20260905141226 77 115 1.0 2.0 0.00 0.00 0.00 75 1016.4
20260905140721 77 186 2.0 3.0 0.00 0.00 0.00 74 1016.3
20260905140215 77 135 0.0 1.0 0.00 0.00 0.00 74 1016.6
20260905135715 77 216 2.0 3.0 0.00 0.00 0.00 74 1016.4
20260905135211 76 175 1.0 2.0 0.00 0.00 0.00 75 1016.5
20260905134710 76 158 0.0 0.0 0.00 0.00 0.00 77 1016.7
20260905134210 76 173 0.0 0.0 0.00 0.00 0.00 77 1016.5
20260905133705 76 164 1.0 1.0 0.00 0.00 0.00 77 1016.7
20260905133200 75 161 0.0 0.0 0.00 0.00 0.00 77 1016.7
20260905132658 75 169 0.0 0.0 0.00 0.00 0.00 78 1016.5
20260905132154 75 166 1.0 1.0 0.00 0.00 0.00 78 1016.7
20260905131649 75 138 0.0 0.0 0.00 0.00 0.00 78 1016.7
20260905131150 74 192 1.0 1.0 0.00 0.00 0.00 79 1016.7
20260905130644 74 184 0.0 0.0 0.00 0.00 0.00 79 1017.0
20260905130144 74 212 4.0 6.0 0.00 0.00 0.00 79 1016.8
20260905125638 74 195 1.0 1.0 0.00 0.00 0.00 80 1016.7
20260905125134 74 187 3.0 3.0 0.00 0.00 0.00 80 1016.9
20260905124631 74 183 1.0 1.0 0.00 0.00 0.00 80 1016.6
20260905124126 74 165 1.0 1.0 0.00 0.00 0.00 81 1016.5
20260905123621 74 217 2.0 2.0 0.00 0.00 0.00 81 1016.6
20260905123119 74 171 0.0 1.0 0.00 0.00 0.00 81 1016.5
20260905122618 74 154 0.0 0.0 0.00 0.00 0.00 83 1016.5
20260905122119 74 170 0.0 0.0 0.00 0.00 0.00 82 1016.5
20260905121613 73 128 0.0 1.0 0.00 0.00 0.00 83 1016.8
20260905121108 73 146 0.0 0.0 0.00 0.00 0.00 82 1016.7
20260905120608 73 166 0.0 0.0 0.00 0.00 0.00 82 1016.7
20260905115601 73 122 0.0 0.0 0.00 0.00 0.00 84 1016.6
20260905115057 73 201 1.0 1.0 0.00 0.00 0.00 83 1016.5
20260905114556 73 146 0.0 0.0 0.00 0.00 0.00 83 1016.4
20260905114055 74 119 1.0 1.0 0.00 0.00 0.00 82 1016.4
20260905113550 74 144 3.0 4.0 0.00 0.00 0.00 83 1015.9
20260905113045 74 52 2.0 3.0 0.00 0.00 0.00 84 1016.3
20260905112541 74 77 0.0 1.0 0.00 0.00 0.00 83 1016.2
20260905112036 75 96 0.0 1.0 0.00 0.00 0.00 83 1016.1
20260905111531 75 113 1.0 1.0 0.00 0.00 0.00 84 1016.1
20260905111030 75 127 2.0 2.0 0.00 0.00 0.00 84 1015.8
20260905110530 75 91 2.0 2.0 0.00 0.00 0.00 93 1015.9
20260905110025 75 106 2.0 3.0 0.00 0.00 0.00 99 1015.6
20260905105525 74 43 2.0 2.0 0.00 0.00 0.00 99 1015.5
20260905105024 74 111 0.0 0.0 0.00 0.00 0.00 99 1014.9
20260905104520 74 130 0.0 0.0 0.00 0.00 0.00 99 1014.9
20260905104019 74 163 0.0 0.0 0.00 0.00 0.00 99 1014.7
20260905103515 74 162 0.0 0.0 0.00 0.00 0.00 99 1014.9
20260905103011 74 146 0.0 0.0 0.00 0.00 0.00 99 1014.9
20260905102507 74 140 0.0 0.0 0.00 0.00 0.00 99 1014.9
20260905102002 74 140 0.0 0.0 0.00 0.00 0.00 99 1014.9
20260905101501 74 150 0.0 0.0 0.00 0.00 0.00 99 1014.7
20260905100959 74 151 0.0 0.0 0.00 0.00 0.00 99 1014.8
20260905100455 74 151 0.0 0.0 0.00 0.00 0.00 99 1014.7
20260905095954 74 151 0.0 0.0 0.00 0.00 0.00 99 1014.6
20260905095450 75 150 0.0 0.0 0.00 0.00 0.00 99 1014.5
20260905094945 75 150 0.0 0.0 0.00 0.00 0.00 99 1014.8
20260905094440 75 150 0.0 0.0 0.00 0.00 0.00 99 1014.7
20260905093939 75 151 0.0 0.0 0.00 0.00 0.00 99 1014.6
20260905093434 75 151 0.0 0.0 0.00 0.00 0.00 99 1014.5
20260905092930 75 150 0.0 0.0 0.00 0.00 0.00 99 1014.6
20260905092425 75 143 0.0 0.0 0.00 0.00 0.00 99 1014.7
20260905091921 75 124 0.0 0.0 0.00 0.00 0.00 99 1014.7
20260905091421 75 139 0.0 0.0 0.00 0.00 0.00 99 1014.5
20260905090920 75 155 0.0 0.0 0.00 0.00 0.00 99 1014.6
20260905090415 75 170 0.0 0.0 0.00 0.00 0.00 99 1014.4
20260905085915 75 170 0.0 0.0 0.00 0.00 0.00 99 1014.5
20260905085414 75 172 0.0 0.0 0.00 0.00 0.00 99 1014.6
20260905084910 75 151 0.0 0.0 0.00 0.00 0.00 99 1014.7
20260905084409 75 151 0.0 0.0 0.00 0.00 0.00 99 1014.8
20260905083904 75 151 0.0 0.0 0.00 0.00 0.00 99 1014.7
20260905083400 75 151 0.0 0.0 0.00 0.00 0.00 99 1014.6
20260905082855 75 151 0.0 0.0 0.00 0.00 0.00 99 1014.6
20260905082352 75 154 0.0 0.0 0.00 0.00 0.00 99 1014.6
20260905081847 75 157 0.0 0.0 0.00 0.00 0.00 99 1014.3
20260905081342 75 157 0.0 0.0 0.00 0.00 0.00 98 1014.4
20260905080840 76 157 0.0 0.0 0.00 0.00 0.00 98 1014.3
20260905080335 76 157 0.0 0.0 0.00 0.00 0.00 98 1014.1
20260905075834 76 158 0.0 0.0 0.00 0.00 0.00 98 1014.0
20260905075334 76 167 0.0 0.0 0.00 0.00 0.00 98 1014.0
20260905074833 76 168 0.0 0.0 0.00 0.00 0.00 98 1013.8
20260905074329 76 164 0.0 0.0 0.00 0.00 0.00 98 1013.9
20260905073824 76 164 0.0 0.0 0.00 0.00 0.00 98 1014.0
20260905073319 76 164 0.0 0.0 0.00 0.00 0.00 98 1014.0
20260905072814 76 164 0.0 0.0 0.00 0.00 0.00 98 1014.0
20260905072309 76 164 0.0 0.0 0.00 0.00 0.00 98 1014.0
20260905071806 76 164 0.0 0.0 0.00 0.00 0.00 98 1013.9
20260905071301 76 164 0.0 0.0 0.00 0.00 0.00 98 1014.1
20260905070756 76 164 0.0 0.0 0.00 0.00 0.00 98 1014.0
20260905070253 76 164 0.0 0.0 0.00 0.00 0.00 98 1014.0
20260905065751 76 164 0.0 0.0 0.00 0.00 0.00 98 1014.2
20260905065250 76 164 0.0 0.0 0.00 0.00 0.00 97 1014.3
20260905064746 76 164 0.0 0.0 0.00 0.00 0.00 97 1014.1
20260905064241 76 165 0.0 0.0 0.00 0.00 0.00 97 1014.2
20260905063740 76 165 0.0 0.0 0.00 0.00 0.00 97 1014.3
20260905063236 76 165 0.0 0.0 0.00 0.00 0.00 97 1014.6
20260905062732 76 165 0.0 0.0 0.00 0.00 0.00 97 1014.7
20260905062231 76 152 0.0 0.0 0.00 0.00 0.00 97 1014.7
20260905061726 76 152 0.0 0.0 0.00 0.00 0.00 97 1014.8